Location: Dampvalley
(47.9094°N, 6.1967°E)
Time: 23:19:37
(UTC+00:00)

Envisat - Pass Details

Date: 04 December 2022
Orbit: 763 x 765 km, 98.2° (Epoch: 04 February)

Event Time Altitude Azimuth Distance (km) Brightness Sun altitude
Rises 03:42:04 0° 16° (NNE) 3,245 6.5 -33.4°
Reaches altitude 10° 03:44:24 10° 19° (NNE) 2,315 5.7 -33.0°
Enters shadow 03:46:07 21° 24° (NNE) 1,662 4.9 -32.7°
